Weather History for Westhampton Beach, NY

Change the Weather History Date:

Monday, December 9, 2013

  Actual Average Record
Temperature  
Mean Temperature 42 °F -  
Max Temperature 50 °F 45 °F 55 °F (2008)
Min Temperature 33 °F 27 °F 3 °F (2002)
Degree Days  
Heating Degree Days 24    
Moisture  
Dew Point 37 °F    
Average Humidity 91    
Maximum Humidity 100    
Minimum Humidity 81    
Precipitation  
Precipitation 0.35 in - - ()
Sea Level Pressure  
Sea Level Pressure 30.13 in    
Wind  
Wind Speed 10 mph (NNE)    
Max Wind Speed 15 mph    
Max Gust Speed 24 mph    
Visibility 3 miles    
Events Rain , Snow    
Averages and records for this station are not official NWS values.
T = Trace of Precipitation, MM = Missing Value Source: NWS Daily Summary

Daily Weather History Graph

Daily Weather History Graph

Search for Another Location

Airport:

Trip Planner

Search our weather history database for the weather conditions in past years. The results will help you decide how hot, cold, wet, or windy it might be!

Date:

Astronomy

Dec. 09, 2013 Rise Set
Actual Time 7:03 AM EST 4:22 PM EST
Civil Twilight 6:32 AM EST 4:53 PM EST
Nautical Twilight 5:58 AM EST 5:27 PM EST
Astronomical Twilight 5:24 AM EST 6:01 PM EST
Moon 11:52 AM EST (12/9) No Moon Set
Length of Visible Light 10h 20m
Length of Day
9h 19m
Waxing Crescent, 51% of the Moon is Illuminated
Dec 9
Waxing Crescent
Dec 17
Full
Dec 25
Last Quarter
Jan 1
New
Jan 7
First Quarter

Hourly Weather History & Observations

Time (EST) Temp. Windchill Dew Point Humidity Pressure Visibility Wind Dir Wind Speed Gust Speed Precip Events Conditions
12:02 AM 33.8 °F 24.3 °F 28.4 °F 81% 30.41 in 3.0 mi NE 13.8 mph - 0.00 in Rain Light Freezing Rain
12:17 AM 33.8 °F 25.3 °F 30.2 °F 87% 30.40 in 3.0 mi NE 11.5 mph 19.6 mph 0.00 in Rain Light Freezing Rain
12:24 AM 33.8 °F 25.3 °F 30.2 °F 87% 30.40 in 4.0 mi NE 11.5 mph 19.6 mph 0.00 in Rain Light Freezing Rain
12:40 AM 33.8 °F 25.8 °F 30.2 °F 87% 30.40 in 2.5 mi NE 10.4 mph - 0.00 in Snow Light Snow
12:53 AM 34.0 °F 25.0 °F 30.9 °F 89% 30.38 in 2.5 mi NE 12.7 mph 19.6 mph 0.00 in Snow Light Snow
1:31 AM 33.8 °F 27.7 °F 30.2 °F 87% 30.36 in 4.0 mi ENE 6.9 mph - 0.01 in Rain Light Rain
1:49 AM 33.8 °F 24.8 °F 30.2 °F 87% 30.37 in 2.0 mi NE 12.7 mph - 0.01 in Snow Light Snow
1:53 AM 33.1 °F 23.4 °F 30.0 °F 89% 30.36 in 2.0 mi NE 13.8 mph 20.7 mph 0.01 in Snow Light Snow
2:01 AM 33.8 °F 23.9 °F 30.2 °F 87% 30.36 in 1.8 mi NE 15.0 mph 20.7 mph 0.01 in Snow Light Snow
2:16 AM 33.8 °F 25.3 °F 30.2 °F 87% 30.35 in 2.0 mi NE 11.5 mph 21.9 mph 0.01 in Snow Light Snow
2:23 AM 33.8 °F 23.9 °F 30.2 °F 87% 30.35 in 1.8 mi NE 15.0 mph - 0.02 in Snow Light Snow
2:33 AM 33.8 °F 24.3 °F 30.2 °F 87% 30.33 in 2.0 mi NE 13.8 mph - 0.02 in Rain Light Rain
2:53 AM 33.1 °F 23.4 °F 30.9 °F 92% 30.33 in 2.5 mi NE 13.8 mph 20.7 mph 0.03 in Rain Light Rain
3:29 AM 33.8 °F 24.8 °F 30.2 °F 87% 30.31 in 3.0 mi NE 12.7 mph - 0.01 in Rain Light Rain
3:41 AM 33.8 °F 25.3 °F 30.2 °F 87% 30.30 in 2.5 mi NE 11.5 mph - 0.02 in Rain Light Rain
3:53 AM 34.0 °F 25.5 °F 32.0 °F 92% 30.29 in 3.0 mi NE 11.5 mph - 0.02 in Rain Light Rain
4:04 AM 33.8 °F 25.8 °F 32.0 °F 93% 30.28 in 2.5 mi NE 10.4 mph - 0.01 in Rain Light Rain
4:25 AM 35.6 °F 27.5 °F 33.8 °F 93% 30.26 in 4.0 mi NE 11.5 mph - 0.04 in Rain Light Rain
4:53 AM 36.0 °F 29.6 °F 34.0 °F 93% 30.26 in 7.0 mi NE 8.1 mph - 0.04 in   Overcast
5:38 AM 37.4 °F 31.4 °F 35.6 °F 93% 30.22 in 8.0 mi ENE 8.1 mph - 0.01 in Rain Light Rain
5:53 AM 39.0 °F 31.8 °F 37.0 °F 93% 30.21 in 10.0 mi ENE 11.5 mph 18.4 mph 0.01 in Rain Light Rain
6:53 AM 41.0 °F 35.8 °F 37.0 °F 86% 30.16 in 5.0 mi East 8.1 mph 18.4 mph 0.01 in Rain Light Rain
7:05 AM 41.0 °F 33.5 °F 37.4 °F 87% 30.15 in 2.0 mi East 13.8 mph 20.7 mph 0.01 in Rain Light Rain
7:40 AM 42.8 °F 37.0 °F 39.2 °F 87% 30.14 in 2.0 mi East 10.4 mph 24.2 mph 0.04 in Rain Light Rain
7:53 AM 43.0 °F 39.5 °F 39.9 °F 89% 30.14 in 2.0 mi Variable 5.8 mph 19.6 mph 0.04 in Rain Light Rain
8:28 AM 44.6 °F 41.4 °F 41.0 °F 87% 30.15 in 1.0 mi East 5.8 mph - 0.03 in Rain Rain
8:53 AM 44.1 °F 40.1 °F 42.1 °F 93% 30.14 in 2.0 mi East 6.9 mph 17.3 mph 0.06 in Rain Light Rain
9:00 AM 44.6 °F 41.4 °F 42.8 °F 93% 30.14 in 1.5 mi East 5.8 mph - 0.00 in Rain Light Rain
9:42 AM 46.4 °F 41.5 °F 42.8 °F 87% 30.09 in 2.0 mi East 10.4 mph 19.6 mph 0.07 in Rain Light Rain
9:53 AM 46.0 °F 41.4 °F 44.1 °F 93% 30.11 in 2.0 mi East 9.2 mph - 0.07 in Rain Light Rain
10:14 AM 46.4 °F 42.9 °F 44.6 °F 93% 30.10 in 1.5 mi Variable 6.9 mph - 0.00 in Rain Light Rain
10:30 AM 46.4 °F 43.5 °F 44.6 °F 93% 30.09 in 1.2 mi Variable 5.8 mph - 0.01 in Rain Light Rain
10:53 AM 48.0 °F - 45.0 °F 89% 30.05 in 1.2 mi East 10.4 mph 18.4 mph 0.02 in Rain Light Rain
11:53 AM 48.9 °F - 46.9 °F 93% 30.01 in 1.0 mi East 5.8 mph - 0.02 in Rain Light Rain
12:53 PM 50.0 °F - 48.9 °F 96% 29.94 in 0.8 mi ENE 8.1 mph - 0.01 in   Overcast
1:29 PM 48.2 °F - 48.2 °F 100% 29.92 in 1.0 mi NNE 4.6 mph - N/A   Overcast
1:53 PM 48.9 °F - 46.9 °F 93% 29.92 in 1.2 mi NW 4.6 mph - N/A   Overcast
2:16 PM 48.2 °F - 46.4 °F 93% 29.91 in 2.0 mi North 5.8 mph - 0.01 in   Overcast
2:44 PM 48.2 °F - 46.4 °F 93% 29.92 in 1.5 mi NNW 9.2 mph - 0.01 in   Overcast
2:53 PM 48.9 °F - 46.0 °F 90% 29.93 in 1.2 mi NW 11.5 mph - 0.01 in   Overcast
3:50 PM 44.6 °F 40.2 °F 42.8 °F 93% 29.95 in 2.5 mi NNW 8.1 mph - N/A   Overcast
3:53 PM 44.1 °F 38.6 °F 42.1 °F 93% 29.96 in 2.5 mi NNW 10.4 mph - N/A   Overcast
4:00 PM 44.6 °F 39.2 °F 42.8 °F 93% 29.96 in 4.0 mi NNW 10.4 mph - N/A   Overcast
4:53 PM 41.0 °F 36.4 °F 39.0 °F 93% 29.98 in 4.0 mi WNW 6.9 mph - N/A   Overcast
5:21 PM 41.0 °F 38.0 °F 39.2 °F 93% 29.98 in 2.5 mi WNW 4.6 mph - N/A   Overcast
5:43 PM 39.2 °F 35.0 °F 39.2 °F 100% 29.98 in 1.5 mi West 5.8 mph - N/A   Overcast
5:53 PM 39.9 °F 35.8 °F 39.0 °F 97% 29.98 in 1.0 mi WNW 5.8 mph - N/A   Overcast
6:15 PM 41.0 °F 37.1 °F 39.2 °F 93% 29.98 in 2.5 mi West 5.8 mph - N/A   Overcast
6:50 PM 41.0 °F 35.2 °F 39.2 °F 93% 29.98 in 3.0 mi West 9.2 mph - N/A   Overcast
6:53 PM 41.0 °F 35.8 °F 39.0 °F 93% 29.98 in 3.0 mi West 8.1 mph - N/A   Overcast
7:32 PM 42.8 °F 38.0 °F 39.2 °F 87% 29.99 in 6.0 mi West 8.1 mph - N/A   Overcast
7:53 PM 41.0 °F 36.4 °F 39.0 °F 93% 30.00 in 7.0 mi West 6.9 mph - N/A   Overcast
8:41 PM 39.2 °F 33.0 °F 35.6 °F 87% 30.01 in 8.0 mi West 9.2 mph - N/A   Scattered Clouds
8:53 PM 37.9 °F 32.1 °F 36.0 °F 93% 30.01 in 8.0 mi WSW 8.1 mph - N/A   Partly Cloudy
9:53 PM 36.0 °F 30.3 °F 34.0 °F 93% 30.00 in 5.0 mi WSW 6.9 mph - N/A   Clear
10:53 PM 35.1 °F 29.3 °F 33.1 °F 92% 30.00 in 6.0 mi WSW 6.9 mph - N/A   Clear
11:53 PM 35.1 °F 28.6 °F 32.0 °F 89% 29.99 in 6.0 mi WSW 8.1 mph - N/A   Clear